Vorticity
6 7 7 8 7 7 7 7 7 7 7 8 8 9 10 9 8 6 5 5 6 6 6 6 7 7 7 8 7 7 7 7 7
7 7 7 7 7 7 7 7 7 7 6 6 7 6 7 7 8 9 9 10 10 9 9 9 8 7 7 7 7 7 7 7 7
8 8 8 8 8 8 8 8 8 8 8 8 8 9 8 6 6 6 6 7 7 7 7 6 6 5 5 6 7 8 9 9 8
7 8 8 8 8 8 7 6 5 5 5 5 6 6 6 5 5 5 6 6 6 7 7 7 6 9 5 4 4 3 2 6 5
6 6 7 6 5 5 5 5 5 6 6 5 5 4 4 5 4 4 5 5 6 6 6 7 6 8 4 5 3 3 8 4 3
4 5 5 5 5 5 6 6 6 5 5 4 4 5 5 5 5 6 6 6 6 6 6 6 6 6 6 6 7 5 -1 -2 1
6 4 4 4 4 4 5 5 5 5 5 6 5 6 6 6 5 6 5 5 5 4 5 5 5 5 5 4 6 7 6 7 5
6 5 4 4 4 4 4 4 5 6 6 5 6 7 6 5 5 5 4 4 4 4 5 6 6 6 7 7 8 7 7 6 6
5 6 6 5 4 4 4 4 4 5 6 6 7 6 5 5 4 5 5 6 7 7 8 9 11 11 11 10 10 10 10 10 11
5 5 6 6 4 4 4 4 4 7 7 9 7 5 5 5 5 6 8 9 10 10 11 10 9 9 8 8 8 8 8 8 8
5 5 5 6 6 6 6 5 6 9 9 7 5 5 5 6 8 10 10 11 10 10 9 8 7 6 6 6 7 7 7 7 7
-6 7 8 12 12 8 6 9 13 9 5 4 5 5 7 8 9 9 10 8 7 6 6 6 6 7 7 7 7 7 8 9 8
13 -13 9 10 9 10 13 13 7 5 4 4 6 6 7 8 9 8 7 7 7 6 7 7 7 6 7 7 7 7 6 7 7
1 -0 10 14 9 6 11 7 5 4 4 5 6 7 9 9 9 8 8 8 8 7 6 7 7 7 8 7 7 7 8 8 7
12 9 15 2 13 1 12 6 5 4 4 6 7 8 8 8 8 8 7 7 5 6 6 7 7 7 7 7 8 8 6 6 5
18 5 -4 -2 15 5 11 6 4 3 4 4 6 7 9 8 9 8 7 6 7 7 7 8 8 8 8 7 6 5 5 4 4
10 -3 12 -4 13 10 7 4 3 3 3 4 5 7 9 9 7 7 7 8 7 7 9 8 9 8 7 6 5 4 4 4 4
9 -4 15 28 6 9 6 4 2 3 3 4 6 9 8 8 7 6 7 7 8 8 9 9 8 6 6 5 5 5 5 5 5
9 8 3 23 0 -0 1 3 2 3 3 3 6 9 8 7 7 7 6 7 7 7 6 6 5 4 5 5 5 5 5 5 6
6 -0 -16 11 32 12 4 2 2 2 3 3 5 8 7 7 7 6 6 8 9 8 8 7 7 5 6 5 5 7 7 6 5
Height
3138 3138 3139 3138 3138 3138 3137 3138 3138 3139 3139 3140 3140 3140 3140 3140 3139 3139 3138 3137 3137 3137 3136 3136 3135 3135 3135 3134 3134 3134 3133 3133 3134
3138 3138 3138 3137 3137 3137 3138 3138 3138 3138 3139 3139 3139 3139 3138 3138 3138 3137 3137 3136 3136 3135 3135 3134 3134 3133 3133 3132 3131 3131 3131 3131 3131
3138 3138 3138 3137 3137 3137 3137 3138 3138 3138 3138 3138 3138 3137 3137 3137 3137 3136 3135 3135 3134 3134 3133 3132 3132 3131 3130 3130 3129 3129 3129 3129 3129
3139 3139 3138 3138 3138 3137 3137 3138 3138 3138 3137 3137 3137 3137 3136 3136 3135 3135 3134 3133 3132 3132 3131 3130 3130 3129 3127 3127 3127 3127 3126 3126 3126
3139 3139 3139 3139 3138 3138 3137 3137 3137 3137 3136 3136 3136 3136 3135 3134 3133 3131 3131 3130 3130 3129 3128 3127 3127 3126 3126 3125 3125 3124 3123 3123 3123
3139 3138 3138 3138 3138 3138 3138 3137 3136 3136 3136 3135 3135 3134 3133 3132 3131 3130 3129 3128 3126 3126 3125 3125 3123 3123 3122 3121 3121 3120 3120 3120 3119
3138 3138 3137 3137 3138 3137 3137 3136 3135 3134 3134 3134 3133 3132 3131 3130 3128 3128 3126 3124 3123 3122 3121 3120 3120 3119 3117 3116 3116 3116 3115 3115 3115
3136 3136 3136 3136 3136 3135 3135 3134 3133 3132 3132 3131 3130 3129 3128 3126 3124 3125 3122 3121 3119 3117 3117 3116 3114 3113 3112 3111 3110 3110 3110 3109 3108
3134 3134 3134 3134 3134 3133 3132 3132 3131 3130 3129 3128 3127 3126 3125 3123 3121 3121 3119 3117 3115 3113 3111 3110 3109 3107 3106 3105 3104 3104 3103 3103 3102
3132 3132 3132 3131 3131 3130 3130 3129 3128 3127 3126 3125 3124 3123 3122 3120 3118 3115 3115 3113 3110 3108 3107 3105 3103 3102 3101 3100 3099 3098 3097 3096 3095
3129 3129 3129 3128 3128 3128 3127 3126 3124 3123 3123 3123 3121 3120 3118 3116 3114 3109 3110 3108 3105 3103 3102 3100 3099 3097 3095 3094 3093 3092 3091 3090 3088
3126 3126 3126 3125 3125 3124 3123 3122 3121 3120 3120 3119 3118 3116 3114 3111 3109 3106 3103 3103 3100 3098 3097 3095 3093 3091 3089 3088 3087 3085 3084 3083 3081
3122 3123 3123 3122 3122 3121 3119 3119 3118 3117 3116 3115 3113 3111 3109 3107 3104 3102 3099 3096 3095 3093 3091 3089 3087 3085 3083 3081 3080 3078 3076 3075 3074
3118 3118 3120 3119 3118 3117 3117 3115 3115 3114 3112 3111 3109 3106 3104 3102 3099 3097 3094 3092 3089 3087 3085 3083 3080 3079 3076 3074 3072 3070 3068 3067 3066
3114 3112 3114 3115 3115 3113 3113 3112 3111 3110 3109 3106 3104 3102 3099 3097 3094 3092 3089 3086 3083 3081 3078 3076 3073 3071 3069 3067 3065 3062 3060 3059 3057
3110 3109 3109 3110 3111 3109 3108 3108 3108 3107 3105 3102 3099 3097 3094 3092 3089 3086 3083 3080 3078 3074 3071 3069 3066 3063 3061 3058 3056 3054 3051 3049 3046
3104 3104 3104 3105 3105 3104 3104 3104 3103 3103 3100 3098 3095 3091 3089 3087 3083 3080 3077 3074 3071 3067 3064 3061 3058 3055 3052 3050 3047 3044 3041 3038 3035
3100 3099 3099 3097 3098 3100 3100 3100 3099 3098 3096 3093 3090 3085 3082 3079 3077 3073 3070 3067 3064 3060 3058 3054 3050 3046 3043 3040 3037 3033 3029 3026 3022
3095 3096 3095 3095 3094 3095 3096 3095 3095 3093 3091 3089 3085 3080 3076 3072 3069 3065 3061 3058 3054 3051 3049 3046 3042 3038 3033 3028 3024 3019 3015 3011 3007
3089 3090 3090 3089 3089 3089 3091 3090 3090 3088 3085 3082 3079 3075 3070 3065 3060 3058 3056 3051 3047 3042 3037 3034 3030 3025 3019 3015 3009 3003 2998 2992 2987